Location: Christianberg
(48.9086°N, 14.0209°E)
Time: 22:37:28
(UTC+00:00)

SJ 16-02 - Pass Details

Date: 20 June 2021
Orbit: 606 x 616 km, 75.0° (Epoch: 04 August)

Event Time Altitude Azimuth Distance (km) Brightness Sun altitude
Rises 00:34:04 0° 318° (NW) 2,873 5.2 -15.0°
Reaches altitude 10° 00:38:16 10° 279° (W) 1,960 3.8 -14.7°
Maximum altitude 00:39:05 10° 268° (W) 1,928 3.7 -14.7°
Drops below altitude 10° 00:39:54 10° 257° (WSW) 1,957 3.6 -14.6°
Enters shadow 00:40:01 10° 256° (WSW) 1,966 3.6 -14.6°
